NKS413 KATL-KPHL

Flight info

Callsign NKS413
Flight time N/A
Altitude 37000
Route PLMMR3 BURGG Q22 BEARI DCT BBDOL PAATS4
Aircraft A20N/M-VGDW/C

Departure

Time 2026-05-05 19:25
Airport Hartsfield Jackson Atlanta International Airport (KATL)

Arrival

Time N/A
Airport Philadelphia International Airport (KPHL)
Time Latitude Longitude Altitude Speed Heading
2026-05-05 19:01 33.64268 -84.43203 1009 ft 0 kts 270°
2026-05-05 19:04 33.64268 -84.43202 1009 ft 0 kts 270°
2026-05-05 19:04 33.64268 -84.43187 1009 ft 3 kts 270°
2026-05-05 19:04 33.64268 -84.43165 1009 ft 3 kts 270°
2026-05-05 19:04 33.64273 -84.43145 1009 ft 3 kts 268°
2026-05-05 19:05 33.64266 -84.43126 1009 ft 3 kts 343°
2026-05-05 19:05 33.64260 -84.43125 1009 ft 0 kts
2026-05-05 19:17 33.64275 -84.43125 1009 ft 10 kts
2026-05-05 19:17 33.64294 -84.43068 1009 ft 3 kts 163°
2026-05-05 19:17 33.64265 -84.43063 1009 ft 9 kts 181°
2026-05-05 19:17 33.64163 -84.43064 1009 ft 20 kts 180°
2026-05-05 19:18 33.63987 -84.43063 1009 ft 30 kts 179°
2026-05-05 19:18 33.63753 -84.43061 1009 ft 31 kts 181°
2026-05-05 19:18 33.63663 -84.42948 1009 ft 21 kts 91°
2026-05-05 19:18 33.63661 -84.42773 1009 ft 24 kts 97°
2026-05-05 19:19 33.63655 -84.42567 1010 ft 24 kts 91°
2026-05-05 19:19 33.63655 -84.42366 1010 ft 24 kts 89°
2026-05-05 19:19 33.63654 -84.42172 1010 ft 23 kts 91°
2026-05-05 19:19 33.63655 -84.41984 1009 ft 22 kts 91°
2026-05-05 19:20 33.63656 -84.41799 1009 ft 22 kts 89°
2026-05-05 19:20 33.63656 -84.41619 1009 ft 21 kts 90°
2026-05-05 19:20 33.63655 -84.41435 1009 ft 23 kts 90°
2026-05-05 19:20 33.63654 -84.41237 1009 ft 24 kts 90°
2026-05-05 19:21 33.63654 -84.41029 1009 ft 25 kts 90°
2026-05-05 19:21 33.63655 -84.40814 1009 ft 26 kts 90°
2026-05-05 19:21 33.63600 -84.40740 1010 ft 5 kts 181°
2026-05-05 19:21 33.63578 -84.40743 1010 ft 0 kts 180°
2026-05-05 19:24 33.63544 -84.40743 1010 ft 15 kts 179°
2026-05-05 19:24 33.63469 -84.40877 1010 ft 44 kts 268°
2026-05-05 19:25 33.63467 -84.41553 1009 ft 118 kts 270°
2026-05-05 19:25 33.63480 -84.42833 1044 ft 181 kts 267°
2026-05-05 19:25 33.63510 -84.44407 1691 ft 186 kts 268°
2026-05-05 19:25 33.63524 -84.45898 2708 ft 174 kts 266°
2026-05-05 19:26 33.63563 -84.47312 3692 ft 165 kts 267°
2026-05-05 19:26 33.63544 -84.48662 4438 ft 163 kts 246°
2026-05-05 19:26 33.62843 -84.49761 4780 ft 178 kts 208°
2026-05-05 19:26 33.61640 -84.50391 5053 ft 199 kts 194°
2026-05-05 19:27 33.60191 -84.50442 5328 ft 227 kts 163°
2026-05-05 19:27 33.58778 -84.49377 5726 ft 253 kts 141°
2026-05-05 19:27 33.57478 -84.47884 6396 ft 264 kts 138°
2026-05-05 19:27 33.56171 -84.46291 7060 ft 273 kts 137°
2026-05-05 19:28 33.54816 -84.44639 7728 ft 282 kts 137°
2026-05-05 19:28 33.53436 -84.42965 8424 ft 289 kts 137°
2026-05-05 19:28 33.52005 -84.41240 9146 ft 295 kts 137°
2026-05-05 19:28 33.50540 -84.39476 9910 ft 302 kts 137°
2026-05-05 19:29 33.49174 -84.37483 10404 ft 321 kts 122°
2026-05-05 19:29 33.48401 -84.34883 10760 ft 345 kts 96°
2026-05-05 19:29 33.48590 -84.31949 11085 ft 364 kts 74°
2026-05-05 19:29 33.49565 -84.29101 11438 ft 377 kts 57°
2026-05-05 19:30 33.51113 -84.26545 11987 ft 382 kts 45°
2026-05-05 19:30 33.52990 -84.24272 12615 ft 386 kts 40°
2026-05-05 19:30 33.54944 -84.22050 13352 ft 389 kts 40°
2026-05-05 19:30 33.56905 -84.19781 14033 ft 393 kts 41°
2026-05-05 19:31 33.58864 -84.17465 14657 ft 397 kts 41°
2026-05-05 19:31 33.60821 -84.15107 15290 ft 401 kts 42°
2026-05-05 19:31 33.62782 -84.12702 15933 ft 404 kts 42°
2026-05-05 19:31 33.64726 -84.10312 16572 ft 407 kts 41°
2026-05-05 19:32 33.66715 -84.07870 17175 ft 411 kts 41°
2026-05-05 19:32 33.68723 -84.05407 17799 ft 414 kts 41°
2026-05-05 19:32 33.70744 -84.02928 18425 ft 417 kts 41°
2026-05-05 19:32 33.72787 -84.00422 18930 ft 421 kts 40°
2026-05-05 19:33 33.74849 -83.97891 19425 ft 426 kts 40°
2026-05-05 19:33 33.76929 -83.95337 19946 ft 429 kts 40°
2026-05-05 19:33 33.79028 -83.92758 20441 ft 433 kts 40°
2026-05-05 19:33 33.81144 -83.90157 20952 ft 437 kts 40°
2026-05-05 19:34 33.83271 -83.87539 21515 ft 438 kts 40°
2026-05-05 19:34 33.85410 -83.84904 22035 ft 441 kts 40°
2026-05-05 19:34 33.87572 -83.82240 22512 ft 445 kts 40°
2026-05-05 19:35 33.91925 -83.76868 23463 ft 451 kts 40°
2026-05-05 19:35 33.94122 -83.74140 23867 ft 455 kts 41°
2026-05-05 19:35 33.96165 -83.71248 24227 ft 462 kts 47°
2026-05-05 19:35 33.98119 -83.68146 24607 ft 466 kts 48°
2026-05-05 19:36 34.00056 -83.64991 24975 ft 468 kts 48°
2026-05-05 19:36 34.01997 -83.61821 25349 ft 471 kts 48°
2026-05-05 19:36 34.03945 -83.58637 25717 ft 473 kts 48°
2026-05-05 19:36 34.05904 -83.55437 26116 ft 475 kts 48°
2026-05-05 19:37 34.07868 -83.52227 26516 ft 477 kts 48°
2026-05-05 19:37 34.09840 -83.49002 26887 ft 479 kts 48°
2026-05-05 19:37 34.11830 -83.45747 27223 ft 482 kts 48°
2026-05-05 19:37 34.13801 -83.42520 27522 ft 484 kts 48°
2026-05-05 19:38 34.15803 -83.39241 27848 ft 487 kts 48°
2026-05-05 19:38 34.17817 -83.35939 28159 ft 489 kts 48°
2026-05-05 19:38 34.19845 -83.32610 28456 ft 492 kts 48°
2026-05-05 19:38 34.21874 -83.29275 28831 ft 493 kts 48°
2026-05-05 19:39 34.23905 -83.25932 29295 ft 491 kts 48°
2026-05-05 19:39 34.25926 -83.22604 29736 ft 490 kts 47°
2026-05-05 19:39 34.27917 -83.19323 30149 ft 490 kts 47°
2026-05-05 19:39 34.29929 -83.16006 30516 ft 489 kts 47°
2026-05-05 19:40 34.31948 -83.12692 30881 ft 489 kts 47°
2026-05-05 19:40 34.33968 -83.09390 31299 ft 487 kts 46°
2026-05-05 19:40 34.35981 -83.06100 31764 ft 483 kts 46°
2026-05-05 19:40 34.37975 -83.02838 32215 ft 480 kts 46°
2026-05-05 19:41 34.39953 -82.99599 32653 ft 477 kts 45°
2026-05-05 19:41 34.41924 -82.96370 33059 ft 475 kts 45°
2026-05-05 19:41 34.43223 -82.94239 33320 ft 473 kts 45°
2026-05-05 19:41 34.45175 -82.91037 33680 ft 471 kts 45°
2026-05-05 19:42 34.47119 -82.87844 34080 ft 469 kts 44°
2026-05-05 19:42 34.49058 -82.84657 34364 ft 468 kts 44°
2026-05-05 19:42 34.50993 -82.81475 34594 ft 469 kts 44°
2026-05-05 19:42 34.52929 -82.78291 34819 ft 469 kts 44°
2026-05-05 19:43 34.54874 -82.75090 34884 ft 474 kts 44°
2026-05-05 19:43 34.56831 -82.71864 35099 ft 474 kts 44°
2026-05-05 19:43 34.58780 -82.68642 35385 ft 472 kts 43°
2026-05-05 19:43 34.60721 -82.65429 35651 ft 471 kts 43°
2026-05-05 19:44 34.62658 -82.62224 35899 ft 470 kts 43°
2026-05-05 19:44 34.64561 -82.59073 36133 ft 469 kts 43°
2026-05-05 19:44 34.66489 -82.55870 36358 ft 468 kts 43°
2026-05-05 19:44 34.68393 -82.52652 36566 ft 468 kts 43°
2026-05-05 19:45 34.70285 -82.49432 36795 ft 468 kts 43°
2026-05-05 19:45 34.72175 -82.46211 36988 ft 468 kts 43°
2026-05-05 19:45 34.74068 -82.42986 37071 ft 470 kts 43°
2026-05-05 19:46 34.77854 -82.36521 37071 ft 468 kts 42°
2026-05-05 19:46 34.81650 -82.30036 37071 ft 471 kts 43°
2026-05-05 19:47 34.85428 -82.23558 37062 ft 467 kts 43°
2026-05-05 19:47 34.89192 -82.17099 37063 ft 467 kts 43°
2026-05-05 19:48 34.92927 -82.10682 37062 ft 467 kts 43°
2026-05-05 19:48 34.96683 -82.04215 37055 ft 467 kts 43°
2026-05-05 19:49 35.00438 -81.97737 37056 ft 467 kts 43°
2026-05-05 19:49 35.04209 -81.91276 37049 ft 466 kts 41°
2026-05-05 19:50 35.08073 -81.84998 37042 ft 464 kts 40°
2026-05-05 19:50 35.11996 -81.78730 37037 ft 464 kts 40°
2026-05-05 19:51 35.15913 -81.72439 37040 ft 465 kts 40°
2026-05-05 19:51 35.19814 -81.66135 37045 ft 465 kts 40°
2026-05-05 19:52 35.23708 -81.59818 37046 ft 465 kts 41°
2026-05-05 19:52 35.27575 -81.53533 37019 ft 465 kts 41°
2026-05-05 19:53 35.31467 -81.47199 37030 ft 465 kts 41°
2026-05-05 19:53 35.35357 -81.40855 37020 ft 465 kts 41°
2026-05-05 19:54 35.39241 -81.34509 37028 ft 465 kts 41°
2026-05-05 19:54 35.43126 -81.28152 37033 ft 465 kts 41°
2026-05-05 19:55 35.46998 -81.21803 37037 ft 464 kts 41°
2026-05-05 19:55 35.50864 -81.15451 37039 ft 464 kts 41°
2026-05-05 19:56 35.54728 -81.09094 37036 ft 464 kts 41°
2026-05-05 19:56 35.58567 -81.02767 37035 ft 464 kts 41°
2026-05-05 19:57 35.62425 -80.96394 37036 ft 464 kts 41°
2026-05-05 19:57 35.66281 -80.90014 37049 ft 464 kts 42°
2026-05-05 19:58 35.70122 -80.83645 37041 ft 462 kts 42°
2026-05-05 19:58 35.73949 -80.77287 37032 ft 462 kts 42°
2026-05-05 19:59 35.77774 -80.70924 37032 ft 462 kts 42°
2026-05-05 19:59 35.81575 -80.64590 37023 ft 462 kts 42°
2026-05-05 20:00 35.85395 -80.58212 37025 ft 462 kts 42°
2026-05-05 20:00 35.89210 -80.51830 37014 ft 462 kts 43°
2026-05-05 20:01 35.93014 -80.45451 37021 ft 461 kts 43°
2026-05-05 20:01 35.96815 -80.39069 37005 ft 461 kts 43°
2026-05-05 20:02 36.00610 -80.32698 37005 ft 461 kts 43°